Weather History for Monterey, CA

Change the Weather History Date:

Tuesday, April 8, 2014

  Actual Average Record
Temperature  
Mean Temperature 65 °F 54 °F  
Max Temperature 78 °F 61 °F 78 °F (2014)
Min Temperature 51 °F 46 °F 39 °F (1999)
Degree Days  
Heating Degree Days 0    
Month to date heating degree days 64  
Since 1 July heating degree days 2109  
Cooling Degree Days 0    
Month to date cooling degree days 0  
Year to date cooling degree days 2  
Growing Degree Days 14 (Base 50)    
Moisture  
Dew Point 50 °F    
Average Humidity 63    
Maximum Humidity 96    
Minimum Humidity 30    
Precipitation  
Precipitation 0.00 in - 0.93 in (1950)
Month to date precipitation 0.70  
Year to date precipitation 6.80  
Since 1 July precipitation 8.08  
Sea Level Pressure  
Sea Level Pressure 30.11 in    
Wind  
Wind Speed 3 mph (NW)    
Max Wind Speed 15 mph    
Max Gust Speed 18 mph    
Visibility 6 miles    
Events Fog    
T = Trace of Precipitation, MM = Missing Value Source: NWS Daily Summary

Daily Weather History Graph

Daily Weather History Graph

Search for Another Location

Airport:

Trip Planner

Search our weather history database for the weather conditions in past years. The results will help you decide how hot, cold, wet, or windy it might be!

Date:

Astronomy

Apr. 08, 2014 Rise Set
Actual Time 6:43 AM PDT 7:35 PM PDT
Civil Twilight 6:16 AM PDT 8:02 PM PDT
Nautical Twilight 5:45 AM PDT 8:33 PM PDT
Astronomical Twilight 5:13 AM PDT 9:05 PM PDT
Moon 1:43 PM PDT (4/8) 2:50 AM PDT (4/8)
Length of Visible Light 13h 45m
Length of Day
12h 52m
Waxing Gibbous, 63% of the Moon is Illuminated
Apr 8
Waxing Gibbous
Apr 15
Full
Apr 22
Last Quarter
Apr 28
New
May 6
First Quarter

Hourly Weather History & Observations

Time (PDT) Temp. Dew Point Humidity Pressure Visibility Wind Dir Wind Speed Gust Speed Precip Events Conditions
12:54 AM 55.0 °F 51.1 °F 86% 30.14 in 10.0 mi NE 3.5 mph - N/A   Clear
1:54 AM 55.9 °F 51.1 °F 84% 30.12 in 10.0 mi Calm Calm - N/A   Clear
2:31 AM 53.6 °F 48.2 °F 82% 30.08 in 9.0 mi Calm Calm - N/A   Scattered Clouds
2:54 AM 54.0 °F 50.0 °F 86% 30.10 in 8.0 mi Calm Calm - N/A   Partly Cloudy
3:31 AM 53.6 °F 50.0 °F 88% 30.06 in 1.0 mi Calm Calm - N/A   Mist
3:38 AM 53.6 °F 51.8 °F 94% 30.07 in 0.8 mi WSW 3.5 mph - N/A   Mist
3:54 AM 53.1 °F 51.1 °F 93% 30.11 in 0.2 mi Calm Calm - N/A Fog Fog
4:34 AM 53.6 °F 51.8 °F 94% 30.08 in 0.2 mi Calm Calm - N/A Fog Fog
4:54 AM 54.0 °F 51.1 °F 90% 30.11 in 0.2 mi Calm Calm - N/A Fog Fog
5:54 AM 52.0 °F 50.0 °F 93% 30.12 in 0.2 mi Calm Calm - N/A Fog Fog
6:20 AM 51.8 °F 50.0 °F 94% 30.09 in 0.5 mi Calm Calm - N/A Fog Fog
6:35 AM 51.8 °F 50.0 °F 94% 30.10 in 0.2 mi East 3.5 mph - N/A Fog Fog
6:52 AM 51.8 °F 50.0 °F 94% 30.10 in 0.5 mi East 3.5 mph - N/A Fog Fog
6:54 AM 51.1 °F 50.0 °F 96% 30.14 in 0.5 mi East 3.5 mph - N/A Fog Fog
7:01 AM 51.8 °F 48.2 °F 88% 30.10 in 0.2 mi East 3.5 mph - N/A Fog Fog
7:50 AM 51.8 °F 50.0 °F 94% 30.11 in 1.0 mi Calm Calm - N/A   Mostly Cloudy
7:51 AM 51.1 °F 50.0 °F 96% 30.15 in 1.5 mi Calm Calm - N/A   Mostly Cloudy
7:53 AM 51.8 °F 48.2 °F 88% 30.11 in 3.0 mi Calm Calm - N/A   Mostly Cloudy
8:04 AM 51.8 °F 50.0 °F 94% 30.11 in 10.0 mi Calm Calm - N/A   Scattered Clouds
8:54 AM 60.1 °F 52.0 °F 75% 30.14 in 10.0 mi Calm Calm - N/A   Clear
9:54 AM 66.0 °F 53.1 °F 63% 30.14 in 10.0 mi Calm Calm - N/A   Clear
10:54 AM 69.1 °F 51.1 °F 53% 30.14 in 10.0 mi West 4.6 mph - N/A   Clear
11:54 AM 71.1 °F 48.0 °F 44% 30.14 in 10.0 mi WNW 5.8 mph - N/A   Clear
12:54 PM 73.0 °F 52.0 °F 48% 30.13 in 10.0 mi NNW 5.8 mph - N/A   Clear
1:54 PM 78.1 °F 44.1 °F 30% 30.12 in 10.0 mi WSW 9.2 mph - N/A   Clear
2:54 PM 73.9 °F 46.0 °F 37% 30.10 in 10.0 mi West 8.1 mph - N/A   Clear
3:54 PM 70.0 °F 48.9 °F 47% 30.10 in 10.0 mi West 8.1 mph - N/A   Clear
4:54 PM 63.0 °F 51.1 °F 65% 30.10 in 10.0 mi WSW 5.8 mph - N/A   Clear
5:54 PM 61.0 °F 52.0 °F 72% 30.10 in 10.0 mi North 5.8 mph - N/A   Clear
6:54 PM 57.9 °F 51.1 °F 78% 30.11 in 10.0 mi West 4.6 mph - N/A   Clear
7:43 PM 57.2 °F 51.8 °F 82% 30.07 in 10.0 mi Calm Calm - N/A   Partly Cloudy
7:54 PM 55.9 °F 50.0 °F 80% 30.11 in 10.0 mi Calm Calm - N/A   Clear
9:54 PM 54.0 °F 50.0 °F 86% 30.14 in 9.0 mi ENE 3.5 mph - N/A   Scattered Clouds
10:06 PM 53.6 °F 50.0 °F 88% 30.10 in 9.0 mi NNE 4.6 mph - N/A   Mostly Cloudy
10:24 PM 53.6 °F 51.8 °F 94% 30.10 in 8.0 mi Calm Calm - N/A   Overcast
10:54 PM 54.0 °F 51.1 °F 90% 30.14 in 8.0 mi Calm Calm - N/A   Overcast
11:32 PM 53.6 °F 51.8 °F 94% 30.10 in 3.0 mi Calm Calm - N/A   Overcast
11:54 PM 54.0 °F 51.1 °F 90% 30.13 in 6.0 mi Calm Calm - N/A   Overcast